INTELSAT 29E (IS-29E)

Last updated on Sat Aug 10 2019 03:46:52 GMT+0000 (Coordinated Universal Time)

1 41308U 16004A 19221.81646819 -.00000330 00000-0 00000+0 0 9991 2 41308 0.3083 98.2120 0022949 314.5447 292.8956 1.00609989 13050
UTC large
Height (km)
Speed (km/s)
/
Latitude / Longitude
Inclination (degrees)
Orbital Period (minutes)
Azimuth
Elevation
Range (km)
Doppler Factor

Next 0 passes for location: London (51.5072 / 0.1276)

Sorry there are no passes over London.